SL-16 DEB

Satellite information

Favourite Embed

Satellite Type and Status

DEBRISIN ORBIT

Key statistics

Satellite SL-16 DEB at a glance.

Uptime

13727

Days in orbit

Revolutions

≈ 13.8

Per day

Orbit

LEO

Low Earth Orbit

Inclination

71.0

Latest

Satellite identification and parameters

Extended collection of information and parameters for SL-16 DEB.

Object identification

Identified? True

Debris? True

Object name: SL-16 DEB

International designator: 1988-039C

Object number (NORAD): 19125

Object ID (CCSDS): 19125

Country: COMMONWEALTH OF INDEPENDENT STATES (CIS)

Current information (Y/N): Y

RCS size: SMALL

Orbital parameters

Period: 104.374 minutes

Inclination: 71.0328 deg

SMA: 7343.273 km

Apoapsis: 1096.812 km

Periapsis: 833.464 km

RAAN: 354.8279 deg

Eccentricy: 0.01793128

Argument of periapsis: 208.245 deg

Mean anomaly: 150.8843 deg

Mean motion: 13.79647842 rev/day

Mean motion (dot): 0.00000137 rev/day2

B* drag term: 0.00015521019 1/REarth

Two-line elements (TLE)

Creation date: Dec. 12, 2025, 10:14 a.m.

Reference frame: TEME

Reference center: EARTH

Epoch: Dec. 12, 2025, 2:54 a.m. UTC

TLE line 0: 0 SL-16 DEB

TLE line 1: 1 19125U 88039C 25346.12143252 .00000137 00000-0 15521-3 0 9994

TLE line 2: 2 19125 71.0328 354.8279 0179313 208.2450 150.8843 13.79647842890371

Live tracking on map

Real-time ground track for satellite SL-16 DEB.

In-orbit conjunctions

A list of the most updated potential collisions computed for object SL-16 DEB.

Target Orbit TCA Probability of collision Miss distance Type
FENGYUN 1C DEB SSO 2025-04-04 20:37:27 0.0001324388 304.0 (m) DEBRIS
CZ-6A DEB LEO 2025-02-10 05:09:12 0.0004374824 885.0 (m) DEBRIS
DELTA 1 DEB SSO 2024-12-04 00:18:12 0.0005556025 114.0 (m) DEBRIS
FENGYUN 1C DEB SSO 2024-11-12 14:59:25 0.000119455 498.0 (m) DEBRIS
FENGYUN 1C DEB SSO 2024-05-30 11:05:26 0.0001412759 95.0 (m) DEBRIS

Associated space launch

Second generation ELING satellite

SL-16 DEB was lifted into orbit during the mission ‘Zenit-2 | Tselina-2 5’, on board a Zenit-2 space rocket.

The launch took place on May 15, 1988, 9:20 a.m. from 45/1.

For more information about the launch, click the button.

Launch to space Zenit-2 | Tselina-2 5
Zenit-2 | Tselina-2 5

Agency: N/A

Status: Launch Successful

Launch date: May 15, 1988, 9:20 a.m. UTC

Rocket: Zenit-2

Launch pad: 45/1

Location: Baikonur Cosmodrome, Republic of Kazakhstan

...

Latest news about this satellite

There are no fresh news available about this satellite. Check back as we update our databases every day.


Newsletter sign-up

Weekly statistics, charts and insights to help you stay on top of the space industry.